Weather History for Plymouth, NH

Change the Weather History Date:

Tuesday, February 26, 2013

  Actual Average (KLCI) Record (KLCI)
Temperature  
Mean Temperature 34 °F -  
Max Temperature 38 °F 32 °F 55 °F (1984)
Min Temperature 31 °F 14 °F -11 °F (1993)
Degree Days  
Heating Degree Days 30    
Moisture  
Dew Point 30 °F    
Average Humidity 85    
Maximum Humidity 99    
Minimum Humidity 68    
Precipitation  
Precipitation 0.00 in - - ()
Sea Level Pressure  
Sea Level Pressure 30.27 in    
Wind  
Wind Speed 2 mph (East)    
Max Wind Speed 7 mph    
Max Gust Speed -    
Visibility 8 miles    
Events Snow    
Averages and records for this station are not official NWS values.
T = Trace of Precipitation, MM = Missing Value Source: NWS Daily Summary

Daily Weather History Graph

Daily Weather History Graph

Search for Another Location

Airport:

Trip Planner

Search our weather history database for the weather conditions in past years. The results will help you decide how hot, cold, wet, or windy it might be!

Date:

Astronomy

Feb. 26, 2013 Rise Set
Actual Time 6:28 AM EST 5:32 PM EST
Civil Twilight 5:59 AM EST 6:01 PM EST
Nautical Twilight 5:26 AM EST 6:34 PM EST
Astronomical Twilight 4:52 AM EST 7:07 PM EST
Moon 6:49 PM EST (2/26) 6:26 AM EST (2/26)
Length of Visible Light 12h 01m
Length of Day
11h 03m
Full, 99% of the Moon is Illuminated
Feb 26
Full
Mar 4
Last Quarter
Mar 11
New
Mar 19
First Quarter
Mar 27
Full

Hourly Weather History & Observations

Time (EST) Temp. Windchill Dew Point Humidity Pressure Visibility Wind Dir Wind Speed Gust Speed Precip Events Conditions
12:15 AM 32.9 °F 29.8 °F 30.6 °F 91% 30.21 in 10.0 mi NNW 3.5 mph - N/A   Unknown
12:35 AM 33.1 °F - 30.2 °F 89% 30.22 in 10.0 mi Calm Calm - N/A   Unknown
12:55 AM 32.9 °F - 30.2 °F 90% 30.22 in 10.0 mi Calm Calm - N/A   Unknown
1:15 AM 32.4 °F - 30.6 °F 93% 30.23 in 10.0 mi Calm Calm - N/A   Unknown
1:35 AM 32.2 °F - 30.7 °F 94% 30.23 in 10.0 mi Calm Calm - N/A   Unknown
1:55 AM 32.4 °F - 30.6 °F 93% 30.23 in 10.0 mi Calm Calm - N/A   Unknown
2:15 AM 32.2 °F - 30.7 °F 94% 30.23 in 10.0 mi Calm Calm - N/A   Unknown
2:35 AM 32.2 °F - 30.9 °F 95% 30.23 in 10.0 mi Calm Calm - N/A   Unknown
3:15 AM 32.0 °F - 31.1 °F 96% 30.24 in 4.0 mi Calm Calm - N/A Snow Light Snow
3:35 AM 32.0 °F - 31.1 °F 96% 30.26 in 7.0 mi Calm Calm - N/A Snow Light Snow
3:55 AM 32.0 °F - 31.1 °F 96% 30.27 in 5.0 mi Calm Calm - N/A Snow Light Snow
4:15 AM 32.0 °F - 31.1 °F 96% 30.26 in 5.0 mi Calm Calm - N/A Snow Light Snow
4:35 AM 32.0 °F - 31.1 °F 96% 30.27 in 3.0 mi Calm Calm - N/A Snow Light Snow
4:55 AM 32.0 °F - 31.1 °F 96% 30.27 in 4.0 mi Calm Calm - N/A Snow Light Snow
5:15 AM 31.6 °F - 31.1 °F 98% 30.28 in 4.0 mi Calm Calm - N/A Snow Light Snow
5:35 AM 32.0 °F - 31.3 °F 97% 30.29 in 5.0 mi Calm Calm - N/A Snow Light Snow
5:55 AM 32.0 °F - 31.5 °F 98% 30.29 in 5.0 mi Calm Calm - N/A Snow Light Snow
6:15 AM 31.5 °F - 31.1 °F 99% 30.28 in 4.0 mi Calm Calm - N/A   Mist
6:35 AM 31.6 °F - 31.1 °F 98% 30.29 in 4.0 mi Calm Calm - N/A   Mist
6:55 AM 31.3 °F - 30.9 °F 99% 30.30 in 2.5 mi Calm Calm - N/A   Mist
7:15 AM 31.5 °F - 31.1 °F 99% 30.29 in 3.0 mi Calm Calm - N/A   Mist
7:35 AM 31.6 °F - 31.5 °F 99% 30.30 in 3.0 mi Calm Calm - N/A   Mist
7:55 AM 32.0 °F - 31.8 °F 99% 30.31 in 3.0 mi Calm Calm - N/A   Mist
8:15 AM 32.0 °F - 31.8 °F 99% 30.31 in 4.0 mi Calm Calm - N/A   Mist
8:35 AM 32.2 °F - 32.0 °F 99% 30.31 in 7.0 mi Calm Calm - N/A   Unknown
8:55 AM 32.7 °F - 32.0 °F 97% 30.32 in 7.0 mi Calm Calm - N/A   Unknown
9:15 AM 33.3 °F - 32.0 °F 95% 30.32 in 10.0 mi Calm Calm - N/A   Unknown
9:35 AM 34.0 °F - 32.0 °F 92% 30.32 in 10.0 mi Calm Calm - N/A   Unknown
9:55 AM 34.5 °F - 31.6 °F 89% 30.32 in 10.0 mi Calm Calm - N/A   Unknown
10:15 AM 35.1 °F - 30.7 °F 84% 30.32 in 10.0 mi Calm Calm - N/A   Unknown
10:35 AM 35.8 °F - 30.4 °F 81% 30.32 in 10.0 mi Calm Calm - N/A   Unknown
10:55 AM 36.5 °F 31.8 °F 28.9 °F 74% 30.31 in 10.0 mi ENE 5.8 mph - N/A   Unknown
11:15 AM 37.0 °F 32.4 °F 27.9 °F 69% 30.31 in 10.0 mi ESE 5.8 mph - N/A   Unknown
11:35 AM 37.4 °F 32.8 °F 28.0 °F 69% 30.31 in 10.0 mi East 5.8 mph - N/A   Unknown
11:55 AM 37.4 °F 33.8 °F 28.0 °F 69% 30.31 in 10.0 mi East 4.6 mph - N/A   Unknown
12:15 PM 37.4 °F 32.8 °F 28.2 °F 69% 30.30 in 10.0 mi East 5.8 mph - N/A   Unknown
12:35 PM 37.6 °F 32.3 °F 27.9 °F 68% 30.30 in 10.0 mi East 6.9 mph - N/A   Unknown
12:55 PM 37.2 °F 34.7 °F 28.6 °F 71% 30.29 in 10.0 mi ESE 3.5 mph - N/A   Unknown
1:15 PM 37.4 °F 33.8 °F 28.6 °F 70% 30.30 in 10.0 mi East 4.6 mph - N/A   Unknown
1:35 PM 37.4 °F 33.8 °F 28.8 °F 71% 30.30 in 10.0 mi East 4.6 mph - N/A   Unknown
1:55 PM 37.8 °F - 29.3 °F 72% 30.30 in 10.0 mi Calm Calm - N/A   Unknown
2:15 PM 37.9 °F 34.4 °F 29.3 °F 71% 30.29 in 10.0 mi East 4.6 mph - N/A   Unknown
2:35 PM 38.3 °F 34.8 °F 29.3 °F 70% 30.29 in 10.0 mi East 4.6 mph - N/A   Unknown
2:55 PM 37.8 °F 34.2 °F 29.3 °F 72% 30.27 in 10.0 mi East 4.6 mph - N/A   Unknown
3:15 PM 37.9 °F 35.5 °F 29.3 °F 71% 30.26 in 10.0 mi East 3.5 mph - N/A   Unknown
3:35 PM 37.8 °F 34.2 °F 29.3 °F 72% 30.26 in 10.0 mi East 4.6 mph - N/A   Unknown
3:55 PM 37.6 °F 33.1 °F 29.3 °F 72% 30.26 in 10.0 mi East 5.8 mph - N/A   Unknown
4:15 PM 37.6 °F 33.1 °F 29.3 °F 72% 30.25 in 10.0 mi East 5.8 mph - N/A   Unknown
4:35 PM 37.6 °F 35.1 °F 29.3 °F 72% 30.25 in 10.0 mi East 3.5 mph - N/A   Unknown
5:15 PM 37.4 °F 32.8 °F 29.7 °F 74% 30.25 in 10.0 mi ESE 5.8 mph - N/A   Unknown
5:35 PM 37.0 °F 33.3 °F 30.0 °F 76% 30.25 in 10.0 mi ESE 4.6 mph - N/A   Unknown
6:15 PM 36.5 °F 31.8 °F 30.2 °F 78% 30.25 in 10.0 mi East 5.8 mph - N/A   Unknown
6:35 PM 36.5 °F 32.7 °F 30.2 °F 78% 30.25 in 10.0 mi East 4.6 mph - N/A   Unknown
7:15 PM 35.6 °F 32.8 °F 30.2 °F 81% 30.24 in 10.0 mi East 3.5 mph - N/A   Unknown
7:35 PM 35.2 °F 32.4 °F 30.6 °F 83% 30.25 in 10.0 mi East 3.5 mph - N/A   Unknown
8:15 PM 35.4 °F 30.5 °F 30.2 °F 81% 30.26 in 10.0 mi East 5.8 mph - N/A   Unknown
8:35 PM 34.9 °F 30.8 °F 30.0 °F 82% 30.26 in 10.0 mi East 4.6 mph - N/A   Unknown
8:55 PM 34.7 °F 29.6 °F 29.8 °F 82% 30.25 in 10.0 mi East 5.8 mph - N/A   Unknown
9:15 PM 34.3 °F 31.4 °F 29.5 °F 82% 30.25 in 10.0 mi East 3.5 mph - N/A   Unknown
9:35 PM 33.8 °F 30.8 °F 29.1 °F 83% 30.24 in 10.0 mi East 3.5 mph - N/A   Unknown
9:55 PM 33.3 °F - 28.8 °F 84% 30.23 in 10.0 mi Calm Calm - N/A   Unknown
10:15 PM 32.2 °F - 28.6 °F 87% 30.23 in 10.0 mi Calm Calm - N/A   Unknown
10:35 PM 32.2 °F - 28.4 °F 86% 30.23 in 10.0 mi Calm Calm - N/A   Unknown
10:55 PM 32.0 °F 28.7 °F 28.2 °F 86% 30.22 in 10.0 mi ENE 3.5 mph - N/A   Unknown
11:15 PM 32.0 °F 28.7 °F 28.2 °F 86% 30.20 in 10.0 mi East 3.5 mph - N/A   Unknown
11:35 PM 32.0 °F 28.7 °F 28.2 °F 86% 30.19 in 10.0 mi ESE 3.5 mph - N/A   Unknown
11:55 PM 32.0 °F - 27.7 °F 84% 30.18 in 10.0 mi Calm Calm - N/A   Unknown